CZ-6A DEB, 54526

Orbit data source: Space-Track

CZ-6A DEB, 54526 is space debris in SSO originally from a launch on Fri, 11 Nov 2022 UTC launched from the Taiyaun Space Center, China (TSC). Debris objects in space refer to the collection of defunct objects orbiting the Earth. Examples of debris include non-operational satellites, rocket bodies, and fragments generated from explosions, collisions, or faulty payload assembly.

Loading next visibility...
Identifier
54526, 2022-151KE
Orbit
SSO
Country
Flag of CNCN / PRC
Related business
Manufacturer
SAST
Mission
Spacecraft
Bus & Motor
Unknown
Mass
Unknown
Launch date (UTC)
2022-11-11 (3 years ago)
Launch vehicle
Unknown
Launch site
Taiyaun Space Center, China (TSC)
Object type
Payload
Rocket body
Debris
Shape & HBR
Unknown shape, 0.3 m
Radar Cross Section
Medium (>0.1 m² and <1 m²)

Expand to show TLE details & history
Last TLE update: 20 hours ago

TLE from 20 hours ago
0 CZ-6A DEB
1 54526U 22151KE  25354.73045414  .00000270  00000-0  17545-3 0  9994
2 54526  98.8342 351.5663 0055086 144.5323 215.9530 14.09952165159544
Epoch: 2025-12-20T17:31Z
TLE epoch observation values (Epoch: 2025-12-20T17:31:51.237Z)
Latitude
-0.00004°
Longitude
-0.95024°
Altitude
894.788 km
Speed
7.388 km/s
True Right ascension
23h 26m 15s
True Declination
0° 00' 00"
Sunlit
Object was in daylight at epoch
Visualization orbit readout
Latitude
Unknown
Longitude
Unknown
Altitude
Unknown
Speed
Unknown
Apparent Right ascension
Unknown
Apparent Declination
Unknown
Sunlit
N/A
Visualization observer readout
Local Sidereal Time
12:33:43
Azimuth
Unknown
Elevation
Unknown
Doppler factor
Unknown
Orbital elements
Apogee altitude
896.567 km
Perigee altitude
816.859 km
Semi-major axis
7,234.85 km
Eccentricity
0.00551
Inclination
98.8342°
RAAN
351.5663°
Arg. of periapsis
144.5323°
True anomaly
215.58444°
Mean anomaly
215.953°
Eccentric anomaly
215.76852°
Mean motion
3.52695 °/min
Orbital period
102.07 mins
BSTAR
0.00017545
Loading maneuver chart data...
Computing Atmospheric mass density...
Loading historical data...
Loading historical data...
Loading historical data...
Loading historical data...
Loading historical data...
Loading historical data...
Loading historical data...

Documentation

Showing up to 5 results
|